Regional Weather Roundup
Issued by NWS Midland/Odessa, TX

Skip options and go directly to product.
Home | Oldest Version | Previous Version | Current Version | All | Graphics & Text | Save Text | Print | Product List | Glossary On

Skip product version selection by date and time.   
384
ASUS44 KMAF 041110
RWRMAF
MIDLAND AREA WEATHER ROUNDUP
NATIONAL WEATHER SERVICE MIDLAND TX
500 AM CST WED MAR 04 2015

...IN SOUTHWEST TEXAS AND SOUTHEAST NEW MEXICO...

CITY           SKY/WX    TMP DP  RH WIND       PRES   REMARKS
ALPINE         CLOUDY    45  42  90 SW3       29.92S
ANDREWS        CLOUDY    49  46  89 CALM      29.82F
ARTESIA        MOCLDY    46  46 100 NW7       29.82S
BIG SPRING     CLOUDY    49  45  88 SE6       29.85R
CARLSBAD       CLOUDY    55  35  47 SW9       29.78F
DRYDEN           N/A     52  51  97 NE6       29.81S
FORT STOCKTON  MOCLDY    49  45  86 W7        29.83F
GUAD PASS      NOT AVBL
HOBBS          CLOUDY    48  48 100 CALM      29.83S
MARFA          CLOUDY    45  41  87 N5        29.88R
MIDLAND AIRPK  CLOUDY    48  47  99 CALM      29.82S
MIDLAND INTL   CLOUDY    46  44  93 NW5       29.81F
ODESSA         CLOUDY    48  44  86 NW6       29.82S
PECOS          MOCLDY    45  43  93 S6        29.82R
PRESIDIO       FAIR      57  48  70 N7        29.78F
SEMINOLE       DRIZZLE   48  46  90 SW5       29.83S
SNYDER         CLOUDY    50  49  96 CALM      29.82S FOG
WINK           MOCLDY    47  43  86 NE3       29.79F
$$
...OTHER STATIONS IN TEXAS...

CITY           SKY/WX    TMP DP  RH WIND       PRES   REMARKS
ABILENE        CLOUDY    50  49  96 SE5       29.83R
AMARILLO       CLOUDY    28  25  88 NE20      29.93R WCI  15
AUSTIN         FOG       58  58 100 CALM      29.83S VSB 1/4
BROWNSVILLE    CLOUDY    69  68  96 SE15      29.77F
CORPUS CHRISTI CLOUDY    68  67  96 S9        29.80R FOG
DALLAS FTW     DRZL/FOG  50  50 100 N7        29.87R VSB 1/4
DEL RIO        CLOUDY    57  53  86 NE5       29.79F
EL PASO        LGT RAIN  53  34  48 S13       29.84F
HOUSTON INT    CLOUDY    70  68  93 S7        29.85R
LUBBOCK        CLOUDY    46  44  93 NE15      29.83R FOG     WCI  40
SAN ANGELO     CLOUDY    54  51  90 S3        29.80F
SAN ANTONIO    CLOUDY    64  62  93 S7        29.81F FOG
WACO           FOG       54  53  97 CALM      29.84S VSB 1/4
WICHITA FALLS  NOT AVBL
$$
...OTHER LOCATIONS IN NEW MEXICO...

CITY           SKY/WX    TMP DP  RH WIND       PRES   REMARKS
ALAMAGORDO     MOCLDY    48  45  87 S8        29.85S
ALBUQUERQUE    CLEAR     32  26  78 CALM      29.88S
CANNON AFB     FOG       35  35  99 NE14      29.87R VSB 1   WCI  26
CLOVIS         CLOUDY    34  34 100 NE18      29.88R VSB 1/2 WCI  23
HOLLOMAN AFB   MOCLDY    48  45  88 W5        29.84R
ROSWELL        CLOUDY    47  42  83 SW5       29.80F
RUIDOSO        MOCLDY    36  32  87 SE6       29.87F WCI  31
SANTA FE       PTCLDY    25  20  81 N3        29.85F
TRUTH OR CONSE CLEAR     38  24  57 NW6       29.85R WCI  33
TUCUMCARI      CLOUDY    31  29  92 NE15      29.90R FOG     WCI  20
$$

USA.gov is the U.S. government's official web portal to all federal, state and local government web resources and services.